�������l�o���
Date,Time,MP-1(��Sv/h),MP-2(��Sv/h),MP-3(��Sv/h),MP-4(��Sv/h),MP-5(��Sv/h),MP-6(��Sv/h),MP-7(��Sv/h),MP-8(��Sv/h),����,����(m/s),���J
2016/12/11,00:00,1.098,1.844,1.208,2.097,1.442,0.571,1.040,0.965,�k�k��,3.0,��
2016/12/11,00:10,1.097,1.846,1.207,2.098,1.440,0.572,1.038,0.964,�k�k��,3.1,��
2016/12/11,00:20,1.098,1.846,1.209,2.095,1.443,0.573,1.040,0.967,�k�k��,1.9,��
2016/12/11,00:30,1.097,1.849,1.209,2.098,1.441,0.570,1.041,0.963,�k,3.9,��
2016/12/11,00:40,1.096,1.849,1.206,2.100,1.442,0.571,1.040,0.965,�k,3.2,��
2016/12/11,00:50,1.095,1.844,1.209,2.096,1.441,0.572,1.041,0.965,�k�k��,2.3,��
2016/12/11,01:00,1.099,1.846,1.207,2.099,1.440,0.570,1.039,0.966,�k��,1.4,��
2016/12/11,01:10,1.096,1.846,1.208,2.099,1.441,0.571,1.039,0.964,�k��,1.7,��
2016/12/11,01:20,1.096,1.845,1.207,2.100,1.438,0.572,1.039,0.964,���k��,2.8,��
2016/12/11,01:30,1.097,1.845,1.205,2.097,1.439,0.572,1.042,0.965,�k��,1.7,��
2016/12/11,01:40,1.098,1.844,1.209,2.097,1.443,0.571,1.038,0.965,�k��,0.9,��
2016/12/11,01:50,1.098,1.847,1.208,2.099,1.441,0.570,1.038,0.964,�k�k��,0.9,��
2016/12/11,02:00,1.096,1.843,1.208,2.101,1.441,0.573,1.040,0.966,-,CALM,��
2016/12/11,02:10,1.097,1.843,1.208,2.096,1.440,0.571,1.040,0.967,-,CALM,��
2016/12/11,02:20,1.094,1.847,1.208,2.100,1.440,0.571,1.040,0.963,�k,2.8,��
2016/12/11,02:30,1.095,1.844,1.207,2.098,1.438,0.573,1.038,0.964,�k�k��,5.1,��
2016/12/11,02:40,1.097,1.846,1.208,2.099,1.440,0.570,1.038,0.966,�k,4.1,��
2016/12/11,02:50,1.096,1.845,1.205,2.100,1.439,0.572,1.041,0.967,�k,4.2,��
2016/12/11,03:00,1.094,1.846,1.205,2.097,1.440,0.570,1.040,0.963,�k,5.6,��
2016/12/11,03:10,1.096,1.846,1.207,2.099,1.439,0.570,1.042,0.965,�k,7.3,��
2016/12/11,03:20,1.094,1.843,1.207,2.099,1.437,0.572,1.042,0.964,�k�k��,8.5,��
2016/12/11,03:30,1.095,1.845,1.208,2.099,1.438,0.569,1.040,0.965,�k�k��,7.7,��
2016/12/11,03:40,1.096,1.846,1.210,2.098,1.437,0.571,1.042,0.966,�k��,6.7,��
2016/12/11,03:50,1.094,1.844,1.207,2.098,1.438,0.571,1.040,0.965,���k��,4.9,��
2016/12/11,04:00,1.095,1.844,1.209,2.097,1.439,0.571,1.038,0.966,���k��,5.2,��
2016/12/11,04:10,1.096,1.843,1.207,2.097,1.439,0.571,1.039,0.965,���k��,4.5,��
2016/12/11,04:20,1.094,1.845,1.208,2.100,1.440,0.573,1.041,0.967,�k�k��,5.8,��
2016/12/11,04:30,1.094,1.846,1.209,2.095,1.439,0.570,1.040,0.966,�k�k��,5.0,��
2016/12/11,04:40,1.094,1.844,1.208,2.099,1.440,0.573,1.041,0.964,�k�k��,5.0,��
2016/12/11,04:50,1.096,1.842,1.208,2.099,1.435,0.572,1.040,0.964,�k�k��,5.2,��
2016/12/11,05:00,1.097,1.842,1.206,2.097,1.438,0.570,1.039,0.964,�k��,4.0,��
2016/12/11,05:10,1.092,1.848,1.203,2.099,1.436,0.571,1.038,0.966,�k��,3.7,��
2016/12/11,05:20,1.095,1.843,1.205,2.097,1.439,0.570,1.039,0.965,���k��,3.8,��
2016/12/11,05:30,1.094,1.843,1.207,2.096,1.435,0.571,1.038,0.964,���k��,4.2,��
2016/12/11,05:40,1.095,1.842,1.207,2.094,1.439,0.571,1.040,0.966,���k��,2.5,��
2016/12/11,05:50,1.096,1.844,1.203,2.099,1.437,0.570,1.040,0.965,���k��,2.8,��
2016/12/11,06:00,1.095,1.840,1.206,2.097,1.437,0.569,1.041,0.965,��,2.3,��
2016/12/11,06:10,1.096,1.839,1.206,2.096,1.436,0.570,1.041,0.963,��,3.2,��
2016/12/11,06:20,1.091,1.843,1.204,2.098,1.439,0.570,1.038,0.964,���쐼,2.5,��
2016/12/11,06:30,1.093,1.843,1.206,2.097,1.437,0.569,1.039,0.966,���쐼,2.2,��
2016/12/11,06:40,1.094,1.840,1.204,2.097,1.436,0.570,1.038,0.964,���쐼,1.9,��
2016/12/11,06:50,1.093,1.842,1.207,2.098,1.433,0.570,1.040,0.965,���쐼,1.4,��
2016/12/11,07:00,1.093,1.845,1.203,2.097,1.437,0.570,1.039,0.964,���k��,1.1,��
2016/12/11,07:10,1.094,1.843,1.206,2.098,1.434,0.570,1.039,0.964,��,0.9,��
2016/12/11,07:20,1.093,1.842,1.205,2.095,1.434,0.569,1.040,0.963,��,1.1,��
2016/12/11,07:30,1.093,1.846,1.204,2.096,1.433,0.570,1.039,0.965,���쐼,1.9,��
2016/12/11,07:40,1.093,1.843,1.208,2.097,1.437,0.570,1.039,0.964,��,1.9,��
2016/12/11,07:50,1.095,1.843,1.205,2.097,1.436,0.571,1.040,0.966,���k��,2.5,��
2016/12/11,08:00,1.094,1.844,1.207,2.099,1.435,0.570,1.039,0.966,�k��,2.0,��
2016/12/11,08:10,1.095,1.841,1.209,2.101,1.438,0.569,1.040,0.964,�k��,2.3,��
2016/12/11,08:20,1.096,1.844,1.207,2.100,1.438,0.572,1.041,0.966,�k�k��,2.9,��
2016/12/11,08:30,1.091,1.847,1.207,2.098,1.437,0.569,1.041,0.967,�k,2.6,��
2016/12/11,08:40,1.092,1.847,1.207,2.097,1.436,0.569,1.041,0.966,�k�k��,1.5,��
2016/12/11,08:50,1.092,1.844,1.207,2.103,1.438,0.570,1.042,0.965,�k��,2.0,��
2016/12/11,09:00,1.094,1.843,1.207,2.098,1.438,0.572,1.043,0.965,�k��,2.2,��
2016/12/11,09:10,1.094,1.846,1.207,2.097,1.437,0.568,1.041,0.965,�k�k��,3.1,��
2016/12/11,09:20,1.094,1.847,1.207,2.102,1.438,0.571,1.041,0.965,�k�k��,2.5,��
2016/12/11,09:30,1.097,1.847,1.208,2.100,1.439,0.571,1.041,0.966,�k�k��,1.4,��
2016/12/11,09:40,1.100,1.847,1.210,2.098,1.443,0.570,1.043,0.965,�k,2.0,��
2016/12/11,09:50,1.098,1.851,1.210,2.101,1.440,0.571,1.042,0.967,�k��,0.9,��
2016/12/11,10:00,1.102,1.848,1.208,2.100,1.438,0.572,1.042,0.966,�k�k��,1.2,��
2016/12/11,10:10,1.098,1.846,1.208,2.100,1.439,0.572,1.043,0.968,�k�k��,1.1,��
2016/12/11,10:20,1.101,1.851,1.209,2.102,1.441,0.572,1.043,0.967,�k��,4.3,��
2016/12/11,10:30,1.100,1.849,1.213,2.103,1.443,0.572,1.040,0.965,�k��,5.0,��
2016/12/11,10:40,1.102,1.851,1.212,2.099,1.445,0.571,1.041,0.965,�k��,6.0,��
2016/12/11,10:50,1.097,1.852,1.214,2.100,1.440,0.572,1.040,0.965,�k��,6.9,��
2016/12/11,11:00,1.102,1.850,1.212,2.102,1.444,0.571,1.040,0.967,�k��,5.0,��
2016/12/11,11:10,1.100,1.850,1.213,2.101,1.446,0.573,1.040,0.968,�k��,4.3,��
2016/12/11,11:20,1.100,1.850,1.211,2.105,1.445,0.571,1.042,0.966,���k��,3.6,��
2016/12/11,11:30,1.102,1.853,1.213,2.103,1.446,0.571,1.042,0.967,���k��,2.8,��
2016/12/11,11:40,1.102,1.851,1.214,2.102,1.446,0.573,1.044,0.967,���k��,2.6,��
2016/12/11,11:50,1.101,1.851,1.213,2.103,1.449,0.573,1.045,0.966,�k��,3.5,��
2016/12/11,12:00,1.102,1.849,1.212,2.104,1.447,0.573,1.044,0.966,�k��,2.2,��
2016/12/11,12:10,1.105,1.854,1.212,2.102,1.446,0.571,1.044,0.967,�k��,1.1,��
2016/12/11,12:20,1.101,1.854,1.212,2.107,1.446,0.573,1.045,0.969,��,4.6,��
2016/12/11,12:30,1.103,1.853,1.215,2.105,1.446,0.573,1.047,0.967,���k��,6.3,��
2016/12/11,12:40,1.103,1.855,1.213,2.106,1.445,0.572,1.046,0.969,��,4.7,��
2016/12/11,12:50,1.104,1.852,1.215,2.108,1.447,0.574,1.046,0.968,��,4.4,��
2016/12/11,13:00,1.104,1.852,1.215,2.106,1.445,0.573,1.047,0.969,�k��,2.9,��
2016/12/11,13:10,1.105,1.852,1.216,2.108,1.445,0.573,1.046,0.969,�k,5.1,��
2016/12/11,13:20,1.103,1.851,1.216,2.108,1.447,0.574,1.044,0.969,�k,2.9,��
2016/12/11,13:30,1.105,1.852,1.217,2.109,1.447,0.577,1.044,0.968,��,0.9,��
2016/12/11,13:40,1.106,1.851,1.215,2.107,1.447,0.575,1.046,0.966,���쐼,5.2,��
2016/12/11,13:50,1.104,1.853,1.216,2.110,1.447,0.575,1.045,0.968,�k��,1.7,��
2016/12/11,14:00,1.106,1.849,1.215,2.107,1.444,0.577,1.045,0.966,�k�k��,6.6,��
2016/12/11,14:10,1.106,1.849,1.217,2.108,1.445,0.577,1.042,0.965,�k�k��,4.4,��
2016/12/11,14:20,1.107,1.855,1.216,2.108,1.448,0.575,1.043,0.967,�k�k��,6.3,��
2016/12/11,14:30,1.104,1.851,1.216,2.110,1.446,0.575,1.045,0.968,�k��,7.7,��
2016/12/11,14:40,1.105,1.855,1.216,2.108,1.446,0.574,1.043,0.968,�k�k��,6.6,��
2016/12/11,14:50,1.107,1.854,1.216,2.109,1.447,0.575,1.042,0.970,�k�k��,6.7,��
2016/12/11,15:00,1.105,1.857,1.218,2.110,1.449,0.573,1.043,0.969,�k�k��,6.2,��
2016/12/11,15:10,1.105,1.858,1.216,2.108,1.447,0.575,1.042,0.968,�k��,6.5,��
2016/12/11,15:20,1.104,1.859,1.215,2.106,1.448,0.574,1.042,0.967,�k��,10.3,��
2016/12/11,15:30,1.104,1.857,1.215,2.110,1.450,0.575,1.042,0.969,�k�k��,9.2,��
2016/12/11,15:40,1.103,1.857,1.215,2.107,1.449,0.575,1.043,0.969,�k�k��,8.8,��
2016/12/11,15:50,1.103,1.858,1.214,2.108,1.448,0.573,1.044,0.967,�k�k��,6.9,��
2016/12/11,16:00,1.105,1.858,1.214,2.110,1.450,0.573,1.044,0.968,�k��,7.1,��
2016/12/11,16:10,1.104,1.855,1.214,2.108,1.450,0.575,1.041,0.967,�k��,10.2,��
2016/12/11,16:20,1.104,1.857,1.215,2.106,1.451,0.573,1.043,0.966,�k��,9.6,��
2016/12/11,16:30,1.102,1.855,1.215,2.107,1.450,0.575,1.043,0.967,�k��,8.8,��
2016/12/11,16:40,1.102,1.855,1.214,2.104,1.449,0.574,1.043,0.968,�k��,9.0,��
2016/12/11,16:50,1.100,1.855,1.215,2.105,1.450,0.573,1.043,0.969,�k��,7.6,��
2016/12/11,17:00,1.102,1.857,1.214,2.105,1.450,0.573,1.044,0.967,�k��,8.9,��
2016/12/11,17:10,1.102,1.852,1.210,2.106,1.449,0.571,1.043,0.967,�k��,9.6,��
2016/12/11,17:20,1.100,1.858,1.211,2.108,1.450,0.572,1.043,0.966,�k��,9.7,��
2016/12/11,17:30,1.102,1.854,1.212,2.105,1.448,0.573,1.042,0.965,�k��,7.9,��
2016/12/11,17:40,1.099,1.854,1.213,2.105,1.450,0.571,1.042,0.968,�k��,7.9,��
2016/12/11,17:50,1.101,1.856,1.213,2.108,1.445,0.571,1.042,0.967,�k��,7.3,��
2016/12/11,18:00,1.099,1.855,1.215,2.110,1.448,0.574,1.044,0.966,�k��,8.3,��
2016/12/11,18:10,1.100,1.857,1.215,2.109,1.445,0.572,1.043,0.968,�k��,6.7,��
2016/12/11,18:20,1.098,1.853,1.217,2.105,1.447,0.571,1.042,0.967,�k��,6.8,��
2016/12/11,18:30,1.101,1.855,1.214,2.104,1.447,0.572,1.042,0.967,�k��,7.3,��
2016/12/11,18:40,1.100,1.855,1.215,2.109,1.447,0.572,1.041,0.968,�k��,7.2,��
2016/12/11,18:50,1.100,1.855,1.213,2.107,1.448,0.575,1.040,0.967,�k��,6.2,��
2016/12/11,19:00,1.099,1.851,1.212,2.108,1.447,0.573,1.040,0.967,�k��,6.1,��
2016/12/11,19:10,1.098,1.858,1.214,2.108,1.447,0.571,1.042,0.966,�k��,5.5,��
2016/12/11,19:20,1.098,1.855,1.212,2.106,1.449,0.573,1.042,0.966,�k��,5.6,��
2016/12/11,19:30,1.099,1.856,1.214,2.104,1.449,0.571,1.042,0.968,�k��,4.9,��
2016/12/11,19:40,1.098,1.852,1.213,2.105,1.449,0.571,1.040,0.966,�k��,5.1,��
2016/12/11,19:50,1.096,1.854,1.213,2.103,1.447,0.573,1.039,0.966,�k��,6.1,��
2016/12/11,20:00,1.099,1.851,1.214,2.105,1.448,0.572,1.040,0.965,�k��,6.1,��
2016/12/11,20:10,1.098,1.852,1.215,2.104,1.446,0.571,1.039,0.967,�k��,5.6,��
2016/12/11,20:20,1.099,1.854,1.211,2.102,1.447,0.570,1.041,0.965,�k��,6.2,��
2016/12/11,20:30,1.099,1.853,1.210,2.106,1.443,0.570,1.040,0.964,�k��,5.4,��
2016/12/11,20:40,1.099,1.854,1.211,2.104,1.447,0.572,1.040,0.965,�k��,5.8,��
2016/12/11,20:50,1.096,1.855,1.210,2.103,1.445,0.571,1.040,0.964,�k��,4.7,��
2016/12/11,21:00,1.096,1.853,1.212,2.103,1.448,0.571,1.038,0.965,�k��,4.3,��
2016/12/11,21:10,1.099,1.852,1.211,2.105,1.445,0.571,1.043,0.964,�k��,4.4,��
2016/12/11,21:20,1.097,1.852,1.210,2.104,1.445,0.571,1.038,0.964,�k��,5.0,��
2016/12/11,21:30,1.097,1.854,1.211,2.102,1.445,0.572,1.038,0.964,�k��,4.7,��
2016/12/11,21:40,1.096,1.854,1.209,2.104,1.445,0.572,1.037,0.964,���k��,4.7,��
2016/12/11,21:50,1.097,1.851,1.211,2.103,1.444,0.572,1.040,0.963,���k��,5.9,��
2016/12/11,22:00,1.096,1.852,1.212,2.104,1.446,0.573,1.041,0.964,���k��,7.6,��
2016/12/11,22:10,1.099,1.853,1.212,2.105,1.446,0.570,1.041,0.965,�k��,8.3,��
2016/12/11,22:20,1.096,1.850,1.210,2.107,1.446,0.571,1.041,0.966,�k��,7.4,��
2016/12/11,22:30,1.096,1.852,1.212,2.103,1.445,0.571,1.042,0.967,�k��,9.7,��
2016/12/11,22:40,1.097,1.855,1.211,2.104,1.443,0.571,1.046,0.966,�k�k��,9.2,��
2016/12/11,22:50,1.098,1.856,1.210,2.105,1.445,0.570,1.041,0.967,�k�k��,10.3,��
2016/12/11,23:00,1.099,1.852,1.209,2.108,1.446,0.569,1.043,0.966,�k�k��,11.4,��
2016/12/11,23:10,1.096,1.853,1.211,2.104,1.444,0.570,1.041,0.967,�k�k��,12.5,��
2016/12/11,23:20,1.097,1.854,1.211,2.107,1.446,0.571,1.043,0.965,�k�k��,10.5,��
2016/12/11,23:30,1.096,1.851,1.208,2.107,1.445,0.570,1.041,0.966,�k�k��,8.1,��
2016/12/11,23:40,1.097,1.852,1.208,2.107,1.445,0.571,1.042,0.966,�k�k��,8.6,��
2016/12/11,23:50,1.095,1.855,1.210,2.105,1.444,0.569,1.041,0.967,�k�k��,8.5,��
